EW3803 Weather Reports


Display with metric or nautical units.
time (UTC)temp
F
wind
direction
speed
MPH
gust
MPH
rain 1hr
in
rain 24hr
in
rain mn
in
humidity
%
barometer
mb
20260503203023 59 230 6.0 13.0 0.00 0.00 0.00 83 1015.2
20260503201525 59 227 5.0 12.0 0.00 0.00 0.00 82 1014.8
20260503200030 60 213 7.0 12.0 0.00 0.00 0.00 82 1014.8
20260503194518 60 195 4.0 12.0 0.00 0.00 0.00 84 1014.7
20260503193035 61 225 7.0 12.0 0.00 0.00 0.00 82 1014.6
20260503191526 61 185 5.0 9.0 0.00 0.00 0.00 80 1014.4
20260503190034 61 206 5.0 8.0 0.00 0.00 0.00 78 1014.4
20260503184529 62 199 6.0 12.0 0.00 0.00 0.00 76 1014.5
20260503183021 63 185 6.0 12.0 0.00 0.00 0.00 76 1014.4
20260503181526 63 175 7.0 12.0 0.00 0.00 0.00 75 1014.3
20260503180026 63 204 6.0 13.0 0.00 0.00 0.00 75 1014.3
20260503174528 64 171 6.0 10.0 0.00 0.00 0.00 75 1014.3
20260503173028 64 157 5.0 11.0 0.00 0.00 0.00 73 1014.3
20260503171526 64 188 5.0 10.0 0.00 0.00 0.00 72 1014.4
20260503081509 61 182 1.0 6.0 0.00 0.00 0.00 80 1015.3
20260503071535 60 184 1.0 6.0 0.00 0.00 0.00 81 1015.2
20260503054526 58 176 2.0 4.0 0.00 0.00 0.00 85 1014.8
20260503053016 58 163 1.0 4.0 0.00 0.00 0.00 84 1014.7
20260503051526 58 172 1.0 3.0 0.00 0.00 0.00 85 1014.6
20260503050028 58 172 1.0 4.0 0.00 0.00 0.00 85 1014.7
20260503044529 58 186 2.0 3.0 0.00 0.00 0.00 85 1014.7
20260503043019 59 201 2.0 6.0 0.00 0.00 0.00 85 1014.7
20260503041524 58 173 1.0 4.0 0.00 0.00 0.00 85 1014.9
20260503040024 58 183 2.0 3.0 0.00 0.00 0.00 85 1014.8
20260503034528 59 183 2.0 5.0 0.00 0.00 0.00 85 1014.9
20260503033023 58 166 1.0 5.0 0.00 0.00 0.00 85 1014.9
20260503031523 58 176 1.0 5.0 0.00 0.00 0.00 85 1015.0
20260503030025 58 176 3.0 4.0 0.00 0.00 0.00 85 1015.1
20260503024526 59 186 2.0 3.0 0.00 0.00 0.00 85 1015.1
20260503023025 59 180 2.0 5.0 0.00 0.00 0.00 85 1015.1
20260503021518 59 181 1.0 5.0 0.00 0.00 0.00 85 1015.2
20260503020024 59 179 3.0 4.0 0.00 0.00 0.00 86 1015.3
20260503014524 59 184 2.0 5.0 0.00 0.00 0.00 86 1015.3
20260503013026 59 186 4.0 7.0 0.00 0.00 0.00 87 1015.5
20260503011529 59 186 3.0 4.0 0.00 0.00 0.00 87 1015.7
20260503010025 59 175 2.0 5.0 0.00 0.00 0.00 87 1015.7
20260503004507 59 183 2.0 4.0 0.00 0.00 0.00 88 1015.8
20260503003027 59 187 2.0 6.0 0.00 0.00 0.00 88 1016.1
20260503001527 60 174 2.0 5.0 0.00 0.00 0.00 88 1016.1
20260503000017 60 178 3.0 6.0 0.00 0.00 0.00 88 1016.3
20260502234533 60 194 3.0 6.0 0.00 0.00 0.00 89 1016.2
20260502233006 60 184 2.0 7.0 0.00 0.00 0.00 89 1016.4
20260502231511 60 184 3.0 7.0 0.00 0.00 0.00 89 1016.5
20260502230022 60 186 3.0 5.0 0.00 0.00 0.00 89 1016.5
20260502224521 60 181 2.0 7.0 0.00 0.00 0.00 89 1016.5
20260502223014 61 180 5.0 9.0 0.00 0.00 0.00 89 1016.4
20260502221508 61 167 4.0 10.0 0.00 0.00 0.00 89 1016.4
20260502220016 61 216 5.0 10.0 0.00 0.00 0.00 89 1016.5
20260502214519 61 176 5.0 9.0 0.00 0.00 0.00 89 1016.4
20260502213026 61 186 5.0 9.0 0.00 0.00 0.00 88 1016.3
20260502211516 61 172 4.0 10.0 0.00 0.00 0.00 88 1016.4
20260502210014 61 175 2.0 9.0 0.00 0.00 0.00 88 1016.3
20260502204518 61 176 4.0 9.0 0.00 0.00 0.00 89 1016.1